Location: Coupvray
(48.8929°N, 2.7967°E)
Time: 20:59:08
(UTC+00:00)

Cosmos 1544 - Pass Details

Date: 14 July 2020
Orbit: 473 x 490 km, 82.5° (Epoch: 14 August)

Event Time Altitude Azimuth Distance (km) Brightness Sun altitude
Exits shadow 03:00:06 - 177° (S) 2,241 6.0 -8.3°
Reaches altitude 10° 03:01:33 10° 174° (S) 1,638 5.4 -8.1°
Maximum altitude 03:05:03 56° 96° (E) 572 3.7 -7.7°
Drops below altitude 10° 03:08:36 10° 18° (NNE) 1,653 6.9 -7.3°
Sets 03:10:43 0° 14° (NNE) 2,538 7.8 -7.1°
